Weather History for Marion, OH

Change the Weather History Date:

Thursday, May 1, 2014

  Actual Average (KDLZ) Record (KDLZ)
Temperature  
Mean Temperature 50 °F -  
Max Temperature 57 °F 67 °F 86 °F (1942)
Min Temperature 44 °F 43 °F 27 °F (1963)
Degree Days  
Heating Degree Days 16    
Moisture  
Dew Point 38 °F    
Average Humidity 64    
Maximum Humidity 83    
Minimum Humidity 47    
Precipitation  
Precipitation 0.00 in - - ()
Sea Level Pressure  
Sea Level Pressure 29.85 in    
Wind  
Wind Speed 13 mph (WSW)    
Max Wind Speed 21 mph    
Max Gust Speed 31 mph    
Visibility 10 miles    
Events      
Averages and records for this station are not official NWS values.
T = Trace of Precipitation, MM = Missing Value Source: NWS Daily Summary

Daily Weather History Graph

Daily Weather History Graph

Search for Another Location

Airport:

Trip Planner

Search our weather history database for the weather conditions in past years. The results will help you decide how hot, cold, wet, or windy it might be!

Date:

Astronomy

May. 01, 2014 Rise Set
Actual Time 6:31 AM EDT 8:28 PM EDT
Civil Twilight 6:01 AM EDT 8:57 PM EDT
Nautical Twilight 5:25 AM EDT 9:34 PM EDT
Astronomical Twilight 4:46 AM EDT 10:13 PM EDT
Moon 8:17 AM EDT (5/1) 11:00 PM EDT (5/1)
Length of Visible Light 14h 56m
Length of Day
13h 57m
Waxing Crescent, 6% of the Moon is Illuminated
May 1
Waxing Crescent
May 6
First Quarter
May 14
Full
May 21
Last Quarter
May 28
New

Hourly Weather History & Observations

Time (EDT) Temp. Windchill Dew Point Humidity Pressure Visibility Wind Dir Wind Speed Gust Speed Precip Events Conditions
12:29 AM 52.0 °F - 46.0 °F 80% 29.86 in 10.0 mi West 15.0 mph - N/A   Overcast
12:53 AM 51.1 °F - 46.0 °F 83% 29.86 in 10.0 mi West 12.7 mph - N/A   Overcast
1:15 AM 50.0 °F - 45.0 °F 83% 29.85 in 10.0 mi West 11.5 mph - N/A   Overcast
1:53 AM 50.0 °F - 45.0 °F 83% 29.85 in 9.0 mi West 9.2 mph - N/A   Mostly Cloudy
2:53 AM 48.9 °F - 43.0 °F 80% 29.85 in 10.0 mi West 8.1 mph - N/A   Overcast
3:53 AM 48.0 °F - 37.9 °F 68% 29.84 in 10.0 mi WSW 10.4 mph - N/A   Overcast
4:53 AM 46.0 °F 40.2 °F 37.9 °F 73% 29.85 in 10.0 mi WSW 12.7 mph - N/A   Overcast
5:53 AM 45.0 °F 41.8 °F 37.0 °F 74% 29.85 in 10.0 mi West 5.8 mph - N/A   Mostly Cloudy
6:53 AM 44.1 °F 39.5 °F 37.9 °F 79% 29.86 in 10.0 mi SW 8.1 mph - N/A   Overcast
7:53 AM 45.0 °F 39.7 °F 37.9 °F 76% 29.87 in 10.0 mi SW 10.4 mph - N/A   Partly Cloudy
8:53 AM 48.9 °F - 39.0 °F 69% 29.87 in 10.0 mi SW 13.8 mph - N/A   Clear
9:53 AM 51.1 °F - 37.9 °F 61% 29.86 in 10.0 mi WSW 17.3 mph 26.5 mph N/A   Clear
10:53 AM 52.0 °F - 37.9 °F 59% 29.85 in 10.0 mi SW 20.7 mph 28.8 mph N/A   Mostly Cloudy
11:53 AM 53.1 °F - 37.0 °F 55% 29.84 in 10.0 mi SW 17.3 mph 25.3 mph N/A   Mostly Cloudy
12:53 PM 55.9 °F - 37.0 °F 49% 29.83 in 10.0 mi WSW 20.7 mph 31.1 mph N/A   Mostly Cloudy
2:53 PM 55.0 °F - 35.1 °F 47% 29.84 in 10.0 mi WSW 18.4 mph 27.6 mph N/A   Overcast
3:53 PM 54.0 °F - 35.1 °F 49% 29.84 in 10.0 mi WSW 17.3 mph 24.2 mph N/A   Overcast
4:53 PM 54.0 °F - 35.1 °F 49% 29.84 in 10.0 mi WSW 19.6 mph 24.2 mph N/A   Overcast
5:53 PM 54.0 °F - 34.0 °F 47% 29.85 in 10.0 mi WSW 13.8 mph 27.6 mph N/A   Overcast
6:53 PM 54.0 °F - 36.0 °F 51% 29.85 in 10.0 mi WSW 13.8 mph - N/A   Overcast
7:53 PM 53.1 °F - 35.1 °F 50% 29.85 in 10.0 mi WSW 11.5 mph - N/A   Overcast
8:53 PM 52.0 °F - 36.0 °F 54% 29.86 in 10.0 mi WSW 12.7 mph - N/A   Overcast
9:53 PM 51.1 °F - 37.0 °F 59% 29.87 in 10.0 mi West 16.1 mph 20.7 mph N/A   Overcast
10:53 PM 50.0 °F - 36.0 °F 59% 29.87 in 10.0 mi West 12.7 mph 20.7 mph N/A   Overcast
11:53 PM 48.0 °F - 36.0 °F 63% 29.86 in 10.0 mi WSW 10.4 mph - N/A   Clear